TimeEST,TemperatureF,Dew PointF,Humidity,Sea Level PressureIn,VisibilityMPH,Wind Direction,Wind SpeedMPH,Gust SpeedMPH,PrecipitationIn,Events,Conditions,WindDirDegrees,DateUTC
1:53 AM,39.9,37.9,93,29.94,10.0,South,4.6,-,N/A,,Scattered Clouds,170,2013-02-16 06:53:00
2:53 AM,37.9,36.0,93,29.93,10.0,South,4.6,-,N/A,,Clear,170,2013-02-16 07:53:00
3:53 AM,37.9,36.0,93,29.91,10.0,Calm,Calm,-,N/A,,Clear,0,2013-02-16 08:53:00
4:53 AM,36.0,34.0,93,29.89,9.0,ESE,4.6,-,N/A,,Clear,110,2013-02-16 09:53:00
5:27 AM,35.6,33.8,93,29.89,1.8,ESE,4.6,-,N/A,,Clear,120,2013-02-16 10:27:00
5:42 AM,35.6,35.6,100,29.89,0.5,ESE,3.5,-,N/A,Fog,Fog,120,2013-02-16 10:42:00
5:48 AM,35.6,35.6,100,29.89,0.2,ESE,5.8,-,N/A,Fog,Fog,120,2013-02-16 10:48:00
5:53 AM,35.1,34.0,96,29.89,0.2,ESE,3.5,-,N/A,Fog,Fog,120,2013-02-16 10:53:00
6:03 AM,35.6,35.6,100,29.88,10.0,ESE,3.5,-,N/A,Fog,Shallow Fog,120,2013-02-16 11:03:00
6:53 AM,35.1,34.0,96,29.88,10.0,ESE,6.9,-,N/A,Fog,Shallow Fog,120,2013-02-16 11:53:00
7:00 AM,35.6,33.8,93,29.88,10.0,ESE,6.9,-,N/A,Fog,Shallow Fog,120,2013-02-16 12:00:00
7:53 AM,42.1,42.1,100,29.88,10.0,Calm,Calm,-,N/A,,Clear,0,2013-02-16 12:53:00
8:21 AM,41.0,39.2,93,29.90,10.0,NNW,15.0,-,N/A,,Mostly Cloudy,340,2013-02-16 13:21:00
8:37 AM,37.4,35.6,93,29.90,4.0,North,15.0,-,N/A,,Mostly Cloudy,350,2013-02-16 13:37:00
8:53 AM,37.9,36.0,93,29.89,7.0,North,12.7,-,N/A,,Mostly Cloudy,360,2013-02-16 13:53:00
9:08 AM,39.2,37.4,93,29.89,9.0,North,15.0,-,N/A,,Overcast,360,2013-02-16 14:08:00
9:24 AM,39.2,35.6,87,29.89,10.0,North,18.4,-,N/A,,Mostly Cloudy,360,2013-02-16 14:24:00
9:31 AM,41.0,35.6,81,29.89,10.0,North,17.3,-,N/A,,Scattered Clouds,10,2013-02-16 14:31:00
9:53 AM,42.1,35.1,76,29.89,10.0,North,15.0,-,N/A,,Scattered Clouds,10,2013-02-16 14:53:00
10:53 AM,42.1,34.0,73,29.88,10.0,North,16.1,20.7,N/A,,Mostly Cloudy,350,2013-02-16 15:53:00
11:53 AM,42.1,34.0,73,29.84,10.0,North,18.4,-,N/A,,Scattered Clouds,360,2013-02-16 16:53:00
12:53 PM,43.0,36.0,76,29.82,10.0,North,16.1,-,N/A,,Mostly Cloudy,360,2013-02-16 17:53:00
1:24 PM,42.8,35.6,76,29.81,10.0,North,17.3,-,N/A,,Scattered Clouds,360,2013-02-16 18:24:00
1:53 PM,42.1,35.1,76,29.80,10.0,North,16.1,24.2,N/A,,Mostly Cloudy,350,2013-02-16 18:53:00
2:24 PM,41.0,35.6,81,29.79,10.0,North,17.3,-,N/A,,Overcast,350,2013-02-16 19:24:00
2:51 PM,41.0,33.8,76,29.78,10.0,North,17.3,24.2,N/A,,Mostly Cloudy,360,2013-02-16 19:51:00
2:53 PM,41.0,34.0,76,29.78,10.0,North,15.0,24.2,N/A,,Mostly Cloudy,360,2013-02-16 19:53:00
3:01 PM,39.2,33.8,81,29.78,10.0,North,16.1,-,N/A,,Mostly Cloudy,350,2013-02-16 20:01:00
3:53 PM,39.0,34.0,82,29.77,10.0,North,16.1,-,N/A,,Overcast,350,2013-02-16 20:53:00
4:53 PM,37.9,35.1,89,29.76,10.0,North,19.6,-,N/A,,Overcast,360,2013-02-16 21:53:00
5:00 PM,37.4,35.6,93,29.76,10.0,North,16.1,-,N/A,,Overcast,360,2013-02-16 22:00:00
5:53 PM,37.9,35.1,89,29.76,10.0,North,15.0,-,N/A,,Overcast,360,2013-02-16 22:53:00
6:53 PM,37.9,35.1,89,29.75,10.0,North,17.3,-,N/A,,Overcast,350,2013-02-16 23:53:00
7:53 PM,37.9,35.1,89,29.72,10.0,North,17.3,24.2,N/A,,Overcast,360,2013-02-17 00:53:00
8:53 PM,39.0,35.1,86,29.70,10.0,North,18.4,26.5,N/A,,Overcast,360,2013-02-17 01:53:00
9:53 PM,39.0,35.1,86,29.67,10.0,North,16.1,27.6,N/A,,Overcast,360,2013-02-17 02:53:00
10:53 PM,37.9,35.1,89,29.63,8.0,North,24.2,-,N/A,,Overcast,10,2013-02-17 03:53:00
11:37 PM,37.4,33.8,87,29.59,7.0,North,23.0,29.9,0.00,,Overcast,10,2013-02-17 04:37:00
11:53 PM,37.9,35.1,89,29.58,7.0,North,23.0,31.1,0.00,Rain,Light Rain,10,2013-02-17 04:53:00